Simultaneous Nadir Overpasses (SNOs) Predictions

Prediction of SNOs between GOES-17 and METOP-B Satellite Orbit:

Table of predicted SNOs for the next 14.0 days since TLE Epoch: 3/11/2023
Index Date Time (GOES-17) GOES-17 Lat,Lon METOP-B Lat,Lon Distance(km) Time Diff (sec)
1 03/11/2023 04:14:13 -0.01,-104.71 0.87,-100.79 446.75 80
2 03/12/2023 16:30:24 0.00,-104.76 0.12,-105.36 68.42 80
3 03/15/2023 04:28:43 0.00,-104.72 -0.05,-104.95 25.91 80
4 03/17/2023 16:29:34 -0.01,-104.76 -0.08,-104.52 27.73 80
5 03/19/2023 04:45:52 0.01,-104.73 -0.98,-109.10 499.03 80
6 03/20/2023 04:27:52 0.01,-104.73 0.13,-104.10 70.79 80
7 03/21/2023 16:44:02 -0.01,-104.77 0.88,-108.66 444.35 80
8 03/22/2023 16:26:01 -0.00,-104.77 -0.23,-103.66 125.86 80
9 03/24/2023 04:42:20 0.01,-104.75 -0.79,-108.25 399.97 80
